Mt Bomar Mars — 9HCM9 — position and weather

sailwx.info

Track history (hours):
 
Tides and Currents Weather Stations Pressure Air Temp Water Temp Dewpoint Dewpoint Depression Visibility Wind Speed Wind Dir Waves Ship Positions

Mt Bomar Mars

Last reported at 2014-Nov-25 23:07 UTC. Time now 2014-Nov-29 01:12 UTC.
Position N 36°31' E 014°25'.

Length 107 m; draft 6.3 m.

Type: Tanker. MMSI: 256784000.

Date/timePositionNaut miles runAvg speedWind from/ knotsBaromVisibWave heightAir tempDewpointWater temp
2014-Nov-25 23:07N 36°31' E 014°25'610.8
2014-Nov-25 22:31N 36°33' E 014°17'1010.7
2014-Nov-25 21:33N 36°36' E 014°05'22211.0
2014-Nov-25 01:23N 37°36' E 009°37'1011.7
2014-Nov-25 00:33N 37°37' E 009°24'1111.2
2014-Nov-24 23:33N 37°39' E 009°11'1211.4
2014-Nov-24 22:33N 37°40' E 008°56'1211.8
2014-Nov-24 21:33N 37°39' E 008°41'1211.7
2014-Nov-24 20:32N 37°37' E 008°27'1111.2
2014-Nov-24 19:32N 37°36' E 008°12'  
2014-Nov-22 09:10N 35°56' W 005°13'5 8.5
2014-Nov-22 08:33N 35°54' W 005°19'0 0.3
2014-Nov-22 07:31N 35°54' W 005°19'0 0.0
2014-Nov-22 06:31N 35°54' W 005°19'0 0.0
2014-Nov-22 05:31N 35°54' W 005°19'0 0.0
2014-Nov-22 04:31N 35°54' W 005°19'0 0.0
2014-Nov-22 03:31N 35°54' W 005°19'0 0.0
2014-Nov-22 02:31N 35°54' W 005°19'0 0.0
2014-Nov-22 01:31N 35°54' W 005°19'1 1.5
2014-Nov-22 00:34N 35°55' W 005°18'1 0.7
2014-Nov-21 23:34N 35°55' W 005°19'7 6.8
2014-Nov-21 22:34N 35°57' W 005°27'236 8.4
2014-Nov-20 18:23N 37°38' W 009°54'  
2014-Nov-16 22:16N 49°34' W 000°14'912.5
2014-Nov-16 21:34N 49°30' W 000°02'8 7.8
2014-Nov-16 20:30N 49°29' E 000°10'3 2.6
2014-Nov-16 19:28N 49°28' E 000°15'0 0.0
2014-Nov-16 18:22N 49°28' E 000°15'0 0.0
2014-Nov-16 17:28N 49°28' E 000°15'0 0.0
2014-Nov-16 16:28N 49°28' E 000°15'0 0.0
2014-Nov-16 15:28N 49°28' E 000°15'0 0.0
2014-Nov-16 14:28N 49°28' E 000°15'0 0.0
2014-Nov-16 13:28N 49°28' E 000°15'0 0.0
2014-Nov-16 12:28N 49°28' E 000°15'0 0.0
2014-Nov-16 11:16N 49°28' E 000°15'0 0.0
2014-Nov-16 09:28N 49°28' E 000°15'0 0.0
2014-Nov-16 08:28N 49°28' E 000°15'0 0.0
2014-Nov-16 07:22N 49°28' E 000°15'0 0.0
2014-Nov-16 06:28N 49°28' E 000°15'0 0.0
2014-Nov-16 05:28N 49°28' E 000°15'0 0.0
2014-Nov-16 04:16N 49°28' E 000°15'0 0.0
2014-Nov-16 03:28N 49°28' E 000°15'0 0.0
2014-Nov-16 02:22N 49°28' E 000°15'0 0.0
2014-Nov-16 01:28N 49°28' E 000°15'0 0.0
2014-Nov-16 00:28N 49°28' E 000°15'0 0.0
2014-Nov-15 23:28N 49°28' E 000°15'  
Track history (hours):
 
Tides and Currents Weather Stations Pressure Air Temp Water Temp Dewpoint Dewpoint Depression Visibility Wind Speed Wind Dir Waves Ship Positions

Mt Bomar Mars

Last reported at 2014-Nov-25 23:07 UTC. Time now 2014-Nov-29 01:12 UTC.
Position N 36°31' E 014°25'.

Length 107 m; draft 6.3 m.

Type: Tanker. MMSI: 256784000.

Date/timePositionNaut miles runAvg speedWind from/ knotsBaromVisibWave heightAir tempDewpointWater temp
2014-Nov-25 23:07N 36°31' E 014°25'610.8
2014-Nov-25 22:31N 36°33' E 014°17'1010.7
2014-Nov-25 21:33N 36°36' E 014°05'22211.0
2014-Nov-25 01:23N 37°36' E 009°37'1011.7
2014-Nov-25 00:33N 37°37' E 009°24'1111.2
2014-Nov-24 23:33N 37°39' E 009°11'1211.4
2014-Nov-24 22:33N 37°40' E 008°56'1211.8
2014-Nov-24 21:33N 37°39' E 008°41'1211.7
2014-Nov-24 20:32N 37°37' E 008°27'1111.2
2014-Nov-24 19:32N 37°36' E 008°12'  
2014-Nov-22 09:10N 35°56' W 005°13'5 8.5
2014-Nov-22 08:33N 35°54' W 005°19'0 0.3
2014-Nov-22 07:31N 35°54' W 005°19'0 0.0
2014-Nov-22 06:31N 35°54' W 005°19'0 0.0
2014-Nov-22 05:31N 35°54' W 005°19'0 0.0
2014-Nov-22 04:31N 35°54' W 005°19'0 0.0
2014-Nov-22 03:31N 35°54' W 005°19'0 0.0
2014-Nov-22 02:31N 35°54' W 005°19'0 0.0
2014-Nov-22 01:31N 35°54' W 005°19'1 1.5
2014-Nov-22 00:34N 35°55' W 005°18'1 0.7
2014-Nov-21 23:34N 35°55' W 005°19'7 6.8
2014-Nov-21 22:34N 35°57' W 005°27'236 8.4
2014-Nov-20 18:23N 37°38' W 009°54'  
2014-Nov-16 22:16N 49°34' W 000°14'912.5
2014-Nov-16 21:34N 49°30' W 000°02'8 7.8
2014-Nov-16 20:30N 49°29' E 000°10'3 2.6
2014-Nov-16 19:28N 49°28' E 000°15'0 0.0
2014-Nov-16 18:22N 49°28' E 000°15'0 0.0
2014-Nov-16 17:28N 49°28' E 000°15'0 0.0
2014-Nov-16 16:28N 49°28' E 000°15'0 0.0
2014-Nov-16 15:28N 49°28' E 000°15'0 0.0
2014-Nov-16 14:28N 49°28' E 000°15'0 0.0
2014-Nov-16 13:28N 49°28' E 000°15'0 0.0
2014-Nov-16 12:28N 49°28' E 000°15'0 0.0
2014-Nov-16 11:16N 49°28' E 000°15'0 0.0
2014-Nov-16 09:28N 49°28' E 000°15'0 0.0
2014-Nov-16 08:28N 49°28' E 000°15'0 0.0
2014-Nov-16 07:22N 49°28' E 000°15'0 0.0
2014-Nov-16 06:28N 49°28' E 000°15'0 0.0
2014-Nov-16 05:28N 49°28' E 000°15'0 0.0
2014-Nov-16 04:16N 49°28' E 000°15'0 0.0
2014-Nov-16 03:28N 49°28' E 000°15'0 0.0
2014-Nov-16 02:22N 49°28' E 000°15'0 0.0
2014-Nov-16 01:28N 49°28' E 000°15'0 0.0
2014-Nov-16 00:28N 49°28' E 000°15'0 0.0
2014-Nov-15 23:28N 49°28' E 000°15'  

Dump ship's entire track history